Arlington, WA

7:38 AM PST on January 20, 2018 (GMT -0800)
Arlington Municipal

Weather History for KAWO - October, 2012

Change the Weather History Date:

Sunday, October 14, 2012

  Actual Average Record
Temperature  
Mean Temperature 60 °F -  
Max Temperature 62 °F 63 °F 69 °F (2005)
Min Temperature 55 °F 36 °F 30 °F (2002)
Degree Days  
Heating Degree Days 6    
Growing Degree Days 10 (Base 50)    
Moisture  
Dew Point 55 °F    
Average Humidity 83    
Maximum Humidity 94    
Minimum Humidity 72    
Precipitation  
Precipitation 0.15 in - - ()
Sea Level Pressure  
Sea Level Pressure 29.96 in    
Wind  
Wind Speed 16 mph (SSE)    
Max Wind Speed 25 mph    
Max Gust Speed 32 mph    
Visibility 10 miles    
Events      
Averages and records for this station are not official NWS values.
T = Trace of Precipitation, MM = Missing Value Source: NWS Daily Summary

Daily Weather History Graph

Daily Weather History Graph

Search for Another Location

Airport or City:

Trip Planner

Search our weather history database for the weather conditions in past years. The results will help you decide how hot, cold, wet, or windy it might be!

Date:

Astronomy

Oct. 14, 2012 Rise Set
Actual Time 7:27 AM PDT 6:20 PM PDT
Civil Twilight 6:56 AM PDT 6:51 PM PDT
Nautical Twilight 6:20 AM PDT 7:27 PM PDT
Astronomical Twilight 5:43 AM PDT 8:03 PM PDT
Moon 6:32 AM PDT (10/14) 5:42 PM PDT (10/14)
Length of Visible Light 11h 55m
Length of Day
10h 53m
Waning Crescent, 1% of the Moon is Illuminated
Oct 14
Waning Crescent
Oct 15
New
Oct 21
First Quarter
Oct 29
Full
Nov 6
Last Quarter

Hourly Weather History & Observations

Time (PDT) Temp. Dew Point Humidity Pressure Visibility Wind Dir Wind Speed Gust Speed Precip Events Conditions
12:15 AM 59.0 °F 55.4 °F 88% 30.10 in 10.0 mi SSE 16.1 mph - N/A   Overcast
12:35 AM 59.0 °F 55.4 °F 88% 30.09 in 10.0 mi SSE 17.3 mph 21.9 mph N/A   Overcast
12:55 AM 59.0 °F 55.4 °F 88% 30.09 in 10.0 mi SSE 13.8 mph - N/A   Overcast
1:15 AM 59.0 °F 55.4 °F 88% 30.08 in 10.0 mi SSE 18.4 mph 24.2 mph N/A   Overcast
1:35 AM 59.0 °F 53.6 °F 82% 30.08 in 10.0 mi SSE 21.9 mph - N/A   Overcast
1:55 AM 59.0 °F 55.4 °F 88% 30.07 in 10.0 mi SSE 19.6 mph 26.5 mph N/A   Overcast
2:15 AM 59.0 °F 55.4 °F 88% 30.07 in 10.0 mi SSE 18.4 mph - N/A   Overcast
2:35 AM 59.0 °F 53.6 °F 82% 30.08 in 10.0 mi SSE 16.1 mph - N/A   Overcast
2:55 AM 59.0 °F 55.4 °F 88% 30.06 in 10.0 mi SSE 16.1 mph - 0.01 in   Overcast
3:15 AM 59.0 °F 55.4 °F 88% 30.06 in 10.0 mi SSE 15.0 mph 21.9 mph N/A   Overcast
3:35 AM 59.0 °F 55.4 °F 88% 30.04 in 10.0 mi SSE 21.9 mph - N/A   Overcast
3:55 AM 59.0 °F 53.6 °F 82% 30.04 in 10.0 mi SSE 20.7 mph 28.8 mph N/A   Overcast
4:15 AM 59.0 °F 55.4 °F 88% 30.03 in 10.0 mi SSE 16.1 mph 21.9 mph N/A   Overcast
4:35 AM 59.0 °F 55.4 °F 88% 30.02 in 10.0 mi SSE 17.3 mph - N/A   Mostly Cloudy
4:55 AM 59.0 °F 55.4 °F 88% 30.02 in 10.0 mi SE 18.4 mph - N/A   Partly Cloudy
5:15 AM 59.0 °F 55.4 °F 88% 30.01 in 10.0 mi SSE 18.4 mph 24.2 mph N/A   Scattered Clouds
5:35 AM 59.0 °F 53.6 °F 82% 30.02 in 10.0 mi SSE 17.3 mph - N/A   Mostly Cloudy
5:55 AM 59.0 °F 53.6 °F 82% 30.01 in 10.0 mi SSE 12.7 mph - N/A   Overcast
6:15 AM 60.8 °F 53.6 °F 77% 30.00 in 10.0 mi SE 16.1 mph 21.9 mph N/A   Mostly Cloudy
6:35 AM 60.8 °F 53.6 °F 77% 30.00 in 10.0 mi SE 16.1 mph - N/A   Mostly Cloudy
6:55 AM 60.8 °F 53.6 °F 77% 29.99 in 10.0 mi SSE 15.0 mph - N/A   Overcast
7:15 AM 60.8 °F 53.6 °F 77% 29.98 in 10.0 mi SE 15.0 mph - N/A   Overcast
7:35 AM 60.8 °F 53.6 °F 77% 29.96 in 10.0 mi SE 17.3 mph - N/A   Overcast
7:55 AM 62.6 °F 53.6 °F 72% 29.98 in 10.0 mi SSE 12.7 mph 18.4 mph N/A   Overcast
8:15 AM 60.8 °F 53.6 °F 77% 29.96 in 10.0 mi SE 10.4 mph - N/A   Overcast
8:35 AM 60.8 °F 53.6 °F 77% 29.96 in 10.0 mi SE 9.2 mph - N/A   Overcast
8:55 AM 60.8 °F 53.6 °F 77% 29.95 in 10.0 mi SSE 15.0 mph 19.6 mph N/A   Overcast
9:15 AM 62.6 °F 53.6 °F 72% 29.94 in 10.0 mi SE 16.1 mph 23.0 mph N/A   Overcast
9:35 AM 62.6 °F 53.6 °F 72% 29.95 in 10.0 mi SSE 16.1 mph - N/A   Overcast
9:55 AM 62.6 °F 53.6 °F 72% 29.96 in 10.0 mi SSE 16.1 mph - N/A   Overcast
10:15 AM 62.6 °F 53.6 °F 72% 29.95 in 10.0 mi SSE 19.6 mph 25.3 mph N/A   Overcast
10:35 AM 62.6 °F 53.6 °F 72% 29.95 in 10.0 mi South 20.7 mph 26.5 mph N/A   Mostly Cloudy
10:55 AM 62.6 °F 53.6 °F 72% 29.95 in 10.0 mi South 21.9 mph 26.5 mph N/A   Mostly Cloudy
11:15 AM 62.6 °F 53.6 °F 72% 29.96 in 10.0 mi South 18.4 mph 28.8 mph N/A   Mostly Cloudy
11:35 AM 62.6 °F 53.6 °F 72% 29.96 in 10.0 mi South 15.0 mph 31.1 mph N/A   Overcast
11:55 AM 62.6 °F 53.6 °F 72% 29.96 in 10.0 mi South 18.4 mph 29.9 mph N/A   Overcast
12:15 PM 62.6 °F 53.6 °F 72% 29.96 in 10.0 mi South 18.4 mph 23.0 mph N/A   Overcast
12:35 PM 62.6 °F 53.6 °F 72% 29.96 in 10.0 mi South 15.0 mph 24.2 mph N/A   Overcast
1:15 PM 62.6 °F 55.4 °F 77% 29.96 in 10.0 mi SSE 16.1 mph 23.0 mph N/A   Overcast
1:35 PM 62.6 °F 55.4 °F 77% 29.95 in 10.0 mi South 12.7 mph - N/A   Overcast
1:55 PM 60.8 °F 55.4 °F 82% 29.95 in 10.0 mi SSE 15.0 mph - N/A   Overcast
2:15 PM 60.8 °F 57.2 °F 88% 29.95 in 10.0 mi SSE 10.4 mph - N/A   Overcast
2:35 PM 60.8 °F 57.2 °F 88% 29.95 in 10.0 mi SSE 13.8 mph - N/A   Overcast
2:55 PM 60.8 °F 57.2 °F 88% 29.94 in 10.0 mi SSE 13.8 mph 19.6 mph 0.02 in   Overcast
3:15 PM 60.8 °F 55.4 °F 82% 29.93 in 9.0 mi SSE 17.3 mph 26.5 mph 0.02 in   Overcast
3:35 PM 60.8 °F 55.4 °F 82% 29.93 in 8.0 mi SSE 20.7 mph 24.2 mph 0.03 in   Overcast
3:55 PM 60.8 °F 55.4 °F 82% 29.92 in 9.0 mi SSE 25.3 mph 32.2 mph 0.05 in   Overcast
4:15 PM 60.8 °F 55.4 °F 82% 29.91 in 8.0 mi SSE 21.9 mph 32.2 mph 0.01 in   Overcast
4:35 PM 60.8 °F 55.4 °F 82% 29.91 in 10.0 mi SSE 19.6 mph 25.3 mph 0.02 in   Overcast
4:55 PM 60.8 °F 55.4 °F 82% 29.91 in 10.0 mi SSE 19.6 mph 26.5 mph 0.02 in   Overcast
5:15 PM 60.8 °F 57.2 °F 88% 29.90 in 10.0 mi SE 17.3 mph - N/A   Overcast
5:35 PM 60.8 °F 55.4 °F 82% 29.90 in 10.0 mi SSE 13.8 mph 24.2 mph N/A   Overcast
5:55 PM 59.0 °F 55.4 °F 88% 29.90 in 10.0 mi SSE 17.3 mph - N/A   Overcast
6:15 PM 59.0 °F 55.4 °F 88% 29.90 in 10.0 mi SSE 17.3 mph - 0.02 in   Overcast
6:35 PM 59.0 °F 55.4 °F 88% 29.90 in 10.0 mi SE 13.8 mph 26.5 mph 0.03 in   Overcast
6:55 PM 59.0 °F 55.4 °F 88% 29.89 in 10.0 mi SE 17.3 mph 21.9 mph 0.03 in   Overcast
7:15 PM 59.0 °F 55.4 °F 88% 29.89 in 10.0 mi SE 12.7 mph 19.6 mph N/A   Overcast
7:35 PM 59.0 °F 55.4 °F 88% 29.88 in 10.0 mi SE 12.7 mph 20.7 mph N/A   Overcast
7:55 PM 59.0 °F 55.4 °F 88% 29.88 in 10.0 mi SE 17.3 mph 23.0 mph N/A   Overcast
8:15 PM 59.0 °F 55.4 °F 88% 29.88 in 10.0 mi SE 15.0 mph 19.6 mph N/A   Overcast
8:35 PM 59.0 °F 55.4 °F 88% 29.88 in 10.0 mi SSE 12.7 mph 25.3 mph N/A   Overcast
8:55 PM 59.0 °F 55.4 °F 88% 29.88 in 10.0 mi SSE 9.2 mph 19.6 mph N/A   Overcast
9:15 PM 59.0 °F 55.4 °F 88% 29.88 in 10.0 mi SSE 12.7 mph - N/A   Overcast
9:35 PM 59.0 °F 55.4 °F 88% 29.88 in 10.0 mi SSE 10.4 mph - N/A   Overcast
9:55 PM 59.0 °F 55.4 °F 88% 29.89 in 10.0 mi South 12.7 mph - N/A   Overcast
10:15 PM 59.0 °F 55.4 °F 88% 29.89 in 9.0 mi South 11.5 mph 18.4 mph 0.01 in   Overcast
10:35 PM 57.2 °F 55.4 °F 94% 29.89 in 5.0 mi South 4.6 mph - 0.02 in   Overcast
10:55 PM 57.2 °F 55.4 °F 94% 29.89 in 9.0 mi South 6.9 mph - 0.02 in   Overcast
11:15 PM 57.2 °F 55.4 °F 94% 29.89 in 9.0 mi South 6.9 mph - N/A   Overcast
11:35 PM 57.2 °F 55.4 °F 94% 29.89 in 4.0 mi SSW 3.5 mph - N/A   Overcast
11:55 PM 55.4 °F 53.6 °F 94% 29.90 in 3.0 mi West 8.1 mph - N/A   Overcast